Regional Weather Roundup
Issued by NWS

Home | Current Version | Previous Version | Graphics & Text | Print | Product List | Glossary On
Versions: 1 2 3 4 5 6 7 8 9 10 11 12 13 14 15 16 17 18 19 20 21 22 23 24 25 26 27 28 29 30 31 32 33 34 35 36 37 38 39 40 41 42 43 44 45 46 47 48 49 50
000
ASUS43 KOAX 202110
RWRNE

WEATHER ROUNDUP FOR NEBRASKA
NATIONAL WEATHER SERVICE OMAHA NE
400 PM CDT SUN AUG 20 2017

NOTES: SATELLITE DATA IS BEING USED TO AUGMENT CLOUD COVER ABOVE
       12000 FEET.
       "FAIR" INDICATES FEW OR NO CLOUDS BELOW 12,000 FEET WITH NO
       SIGNIFICANT WEATHER AND/OR OBSTRUCTIONS TO VISIBILITY.


NEZ001>004-019>022-054>056-202200-
NEBRASKA PANHANDLE

CITY           SKY/WX    TMP DP  RH WIND       PRES   REMARKS
SCOTTSBLUFF    SUNNY     86  55  34 SE12G18   30.02F
ALLIANCE       SUNNY     84  56  38 E12G21    30.03F
CHADRON        SUNNY     86  51  29 E13G22    30.00F
GORDON         FAIR      83  52  34 E17G23    30.04F
KIMBALL        SUNNY     83  59  43 NE10      30.08F
SIDNEY         SUNNY     88  60  38 NE8       30.05F
$$

NEZ057>060-069>072-079>082-202200-
SOUTHWEST NEBRASKA

CITY           SKY/WX    TMP DP  RH WIND       PRES   REMARKS
NORTH PLATTE   SUNNY     85  69  58 SE8       29.95S
IMPERIAL       SUNNY     88  62  41 E6        29.96F
LEXINGTON      MOSUNNY   85  73  65 E7        29.92S HX  91
MCCOOK         MOSUNNY   91  60  35 NW5       29.90F HX  90
OGALLALA       SUNNY     88  65  47 E9        29.98S
$$

NEZ005>010-023>029-035>040-094-202200-
NORTH CENTRAL NEBRASKA

CITY           SKY/WX    TMP DP  RH WIND       PRES   REMARKS
VALENTINE      SUNNY     86  49  27 NE21G30   30.00F
AINSWORTH      SUNNY     79  66  63 NE15      30.00F
BROKEN BOW     SUNNY     84  69  60 E9        29.95S
O`NEILL        CLOUDY    82  69  66 E6        29.98S
ORD            PTSUNNY   82  67  60 SE8       29.93S
THEDFORD       SUNNY     86  64  46 E14G20    29.99S
$$

NEZ041-046>049-061>064-073>077-083>087-202200-
SOUTH CENTRAL NEBRASKA

CITY           SKY/WX    TMP DP  RH WIND       PRES   REMARKS
GRAND ISLAND   SUNNY     86  75  69 SE9       29.92F HX  95
AURORA         SUNNY     87  74  66 S13       29.91F HX  95
HASTINGS       SUNNY     87  74  64 SE12      29.91F HX  95
HEBRON         MOSUNNY   92  73  52 SE9       29.90F HX 101
HOLDREGE       SUNNY     89  68  49 SE6       29.91S HX  92
KEARNEY        SUNNY     89  75  63 SE12      29.91F HX  99
YORK           MOSUNNY   86  75  70 SE13      29.92S HX  95
$$

NEZ011>018-030>034-042>045-202200-
NORTHEAST NEBRASKA

CITY           SKY/WX    TMP DP  RH WIND       PRES   REMARKS
NORFOLK        MOSUNNY   81  68  64 SE9       29.95R
ALBION         CLOUDY    81  71  72 SE9G16    29.95F
BLAIR          CLOUDY    82  69  64 SE7       29.96S
COLUMBUS       MOSUNNY   82  71  69 SE10      29.94F
FREMONT        SUNNY     83  65  56 SE16      29.95F
TEKAMAH        SUNNY     84  67  56 SE9       29.94F
WAYNE          SUNNY     82  66  57 S9        29.95S
$$

NEZ050>053-065>068-078-088>093-202200-
SOUTHEAST NEBRASKA

CITY           SKY/WX    TMP DP  RH WIND       PRES   REMARKS
LINCOLN        SUNNY     84  70  62 SE15      29.93F
OMAHA EPPLEY   CLOUDY    81  67  62 SE14      29.95F
BEATRICE       SUNNY     90  72  55 SE15G22   29.92F HX  96
FALLS CITY     SUNNY     86  69  56 SE16G23   29.94F HX  90
NEBRASKA CITY  SUNNY     83  68  60 S15G21    29.95F
PLATTSMOUTH    SUNNY     82  63  52 SE16G23   29.96S
$$

NEZ044-045-051>053-067-202200-
OMAHA AREA

CITY           SKY/WX    TMP DP  RH WIND       PRES   REMARKS
OMAHA EPPLEY   CLOUDY    81  67  62 SE14      29.95F
BLAIR          CLOUDY    82  69  64 SE7       29.96S
FREMONT        SUNNY     83  65  56 SE16      29.95F
MILLARD        SUNNY     86  66  51 SE16G25   29.95S
OFFUTT AFB     SUNNY     84  65  52 SE15      29.94F
PLATTSMOUTH    SUNNY     82  63  52 SE16G23   29.96S
WAHOO          FAIR      83  68  61 SE21      29.95S
$$



USA.gov is the U.S. government's official web portal to all federal, state and local government web resources and services.